Regional Weather Roundup
Issued by NWS

Home | Current Version | Previous Version | Graphics & Text | Print | Product List | Glossary On
Versions: 1 2 3 4 5 6 7 8 9 10 11 12 13 14 15 16 17 18 19 20 21 22 23 24 25 26 27 28 29 30 31 32 33 34 35 36 37 38 39 40 41 42 43 44 45 46 47 48 49 50
000
ASUS43 KMKX 270900
RWRWI

WISCONSIN REGIONAL WEATHER ROUNDUP
NATIONAL WEATHER SERVICE MILWAUKEE/SULLIVAN WI
300 AM CST TUE JAN 27 2015

NOTE: "FAIR" INDICATES FEW OR NO CLOUDS BELOW 12,000 FEET WITH NO
SIGNIFICANT WEATHER AND/OR OBSTRUCTIONS TO VISIBILITY.

WIZ001-002-006>008-014>016-023>028-271000-
NORTHWEST WISCONSIN

CITY           SKY/WX    TMP DP  RH WIND       PRES   REMARKS
SUPERIOR ARPT  CLOUDY    28  23  81 N3        30.07R
ASHLAND        CLOUDY    26  23  88 NW3       30.05R
HAYWARD        CLOUDY    27  23  85 CALM      30.03R
SIREN          CLOUDY    30  23  76 N6        30.05R WCI  24
CUMBERLAND     CLOUDY    28  23  80 N6        30.03R WCI  22
RICE LAKE      CLOUDY    29  24  82 N5        30.05R WCI  24
CHETEK         CLOUDY    28  25  86 N6        30.04R WCI  22
LADYSMITH      CLOUDY    26  24  93 CALM      30.03R
EAU CLAIRE     NOT AVBL
MENOMONIE      CLOUDY    31  26  79 NW12      30.04R WCI  22
NEW RICHMOND   CLOUDY    32  26  78 NE7       30.04R WCI  25
OSCEOLA        CLOUDY    32  26  78 N6        30.07R WCI  27
$$

WIZ003>005-009-010-017-018-271000-
NORTH CENTRAL WISCONSIN

CITY           SKY/WX    TMP DP  RH WIND       PRES   REMARKS
MANITOWISH WTR CLOUDY    19  18  96 CALM      29.99R
ARBOR VITAE    CLOUDY    22  19  91 CALM      29.99R
WOODRUFF       CLOUDY    22  19  91 CALM      29.99R
RHINELANDER    CLOUDY    20  17  88 CALM      29.99R
EAGLE RIVER    CLOUDY    20  16  85 CALM      29.99R
LAND O LAKES   CLOUDY    20  18  91 SE3       29.99R
PHILLIPS       CLOUDY    20  19  95 CALM      30.00R
TOMAHAWK       CLOUDY    19  18  93 CALM      30.00R
MEDFORD        CLOUDY    20  19  96 CALM      29.99R FOG
MERRILL        CLOUDY    21  19  95 CALM      30.00R
$$

WIZ029-030-035-036-043>047-271000-
CENTRAL WISCONSIN

CITY           SKY/WX    TMP DP  RH WIND       PRES   REMARKS
WAUSAU         CLOUDY    22  19  89 N3        30.00R
MOSINEE        CLOUDY    21  21 100 N5        30.01R WCI  15
MARSHFIELD     CLOUDY    23  20  88 N6        30.01R FOG     WCI  16
STEVENS POINT  CLOUDY    20  19  95 N3        30.01R
WAUPACA        CLOUDY    26  23  89 CALM      30.01R FOG
WAUTOMA        NOT AVBL
WISC RAPIDS    CLOUDY    23  19  85 N6        30.02R WCI  16
CAMP DOUGLAS   CLOUDY    23  23 100 N5        30.01R WCI  17
$$

WIZ011>013-019>022-031-037>040-048>050-271000-
NORTHEAST WISCONSIN

CITY           SKY/WX    TMP DP  RH WIND       PRES   REMARKS
ANTIGO         CLOUDY    20  19  96 E3        29.98R FOG
SHAWANO        CLOUDY    25  21  85 CALM      30.03R
OCONTO         CLOUDY    22  21  96 CALM      30.05R
STURGEON BAY   CLOUDY    21  16  79 CALM      30.06R
GREEN BAY      CLOUDY    24  20  84 E5        30.03R WCI  18
MANITOWOC      NOT AVBL
APPLETON       CLOUDY    25  23  93 E6        30.01R WCI  18
CLINTONVILLE   CLOUDY    25  23  93 E5        30.02R WCI  19
OSHKOSH        CLOUDY    25  21  85 NE6       30.00R WCI  18
$$

WIZ032>034-041-042-053>061-271000-
SOUTHWEST WISCONSIN

CITY           SKY/WX    TMP DP  RH WIND       PRES   REMARKS
LA CROSSE      CLOUDY    32  23  69 N8        30.03R WCI  25
SPARTA         CLOUDY    27  26  96 N6        30.03R WCI  21
VIROQUA        CLOUDY    28  28 100 N12       29.99R WCI  18
BOSCOBEL       CLOUDY    28  25  88 VRB3      30.02R FOG
PRAIRIE DU CHI CLOUDY    32  28  85 NW7       30.01R WCI  26
PLATTEVILLE    CLOUDY    28  27  96 NW6       29.97R WCI  22
$$

WIZ056-057-062-063-064-067-068-271000-
SOUTH CENTRAL WISCONSIN

CITY           SKY/WX    TMP DP  RH WIND       PRES   REMARKS
REEDSBURG      CLOUDY    25  23  93 N8        30.00R WCI  16
BARABOO/DELLS  CLOUDY    24  22  93 CALM      29.99R FOG
LONE ROCK      NOT AVBL
MINERAL POINT  CLOUDY    28  28 100 N6        29.96R FOG     WCI  22
MADISON        CLOUDY    25  22  88 N5        29.99R FOG     WCI  19
MIDDLETON      CLOUDY    26  25  94 N5        29.98R WCI  21
WATERTOWN      CLOUDY    24  24  99 N3        29.97R FOG
MONROE         CLOUDY    27  27 100 N5        29.95R FOG     WCI  21
JANESVILLE     CLOUDY    28  27  93 CALM      29.96R FOG
$$

WIZ051-052-058>065-066-070>072-271000-
SOUTHEAST WISCONSIN

CITY           SKY/WX    TMP DP  RH WIND       PRES   REMARKS
MILWAUKEE      CLOUDY    27  22  81 NW3       29.98R
WAUKESHA       CLOUDY    23  23 100 CALM      29.98R FOG
MILWAUKEE/TIMM CLOUDY    27  23  86 N5        29.98R WCI  21
RACINE         CLOUDY    26  23  88 N6        29.99R WCI  19
BURLINGTON     CLOUDY    22  22  98 NW5       29.96R FOG     WCI  16
KENOSHA        CLOUDY    27  24  89 N3        29.96R FOG
FOND DU LAC    CLOUDY    24  20  84 N5        30.00R WCI  18
SHEBOYGAN      CLOUDY    25  20  81 E7        30.01R WCI  17
WEST BEND      CLOUDY    25  23  93 CALM      29.98R FOG
JUNEAU         CLOUDY    23  22  95 N3        29.99R FOG
$$

LSZ147-162-271000-
LAKE SUPERIOR

STATION/POSITION TIME  TEMP    WIND        PRES    WAVE
                       AIR SEA DIR/SP/G            HT/PER
                 (UTC) (F)     (DEG/KT/KT) (MB)    (FT/S)
DEVILS ISLAND    0800   28     350/  9/ 11 1018.0R
PORT WING        0840   29     350/  9/ 12 1017.9R
SAXON HARBOR     0800   25        CALM     1016.6R
$$

LMZ867-665-643>646-271000-
LAKE MICHIGAN

STATION/POSITION TIME  TEMP    WIND        PRES    WAVE
                       AIR SEA DIR/SP/G            HT/PER
                 (UTC) (F)     (DEG/KT/KT) (MB)    (FT/S)
NORTHPORT PIER   0823   24     130/ 10/ 12 1017.9R
SISTER BAY       0843   23        CALM       N/A
KEWAUNEE LAKESHO 0800   25     120/ 11/ 15 1015.8R
SHEBOYGAN LAKESH 0800   26      90/ 17/ 18 1016.7R
PORT WASHINGTON  0840   29     120/ 10/ 13 1016.6R
KENOSHA   LAKESH 0800   27     330/  3/  4 1014.6R
$$

TC  - TEMPERATURE IN CELSIUS
VSB - VISIBILITY IN STATUTE MILES
WCI - WIND CHILL INDEX
HX  - HEAT INDEX




USA.gov is the U.S. government's official web portal to all federal, state and local government web resources and services.